DL8NDG-13 Weather Reports


Display with metric or nautical units.
time (UTC)temp
F
wind
direction
speed
MPH
gust
MPH
rain 1hr
in
rain 24hr
in
rain mn
in
humidity
%
barometer
mb
20260510013050 50 55 0.0 0.0 0.00 0.00 0.00 84 1013.0
20260510011538 50 61 0.0 0.0 0.00 0.00 0.00 83 1012.9
20260510010037 51 59 0.0 0.0 0.00 0.00 0.00 82 1012.9
20260510004534 51 59 0.0 0.0 0.00 0.00 0.00 82 1013.2
20260510003044 52 59 0.0 0.0 0.00 0.00 0.00 81 1013.3
20260510001530 52 55 0.0 0.0 0.00 0.00 0.00 82 1013.3
20260510000031 52 55 0.0 0.0 0.00 0.00 0.00 82 1013.6
20260509234536 52 55 0.0 0.0 0.00 0.00 0.00 82 1013.7
20260509233039 52 53 0.0 0.0 0.00 0.00 0.00 82 1013.7
20260509231525 52 53 0.0 0.0 0.00 0.00 0.00 81 1014.1
20260509230021 53 53 0.0 0.0 0.00 0.00 0.00 81 1014.3
20260509224518 53 53 0.0 0.0 0.00 0.00 0.00 80 1014.3
20260509223017 54 60 0.0 0.0 0.00 0.00 0.00 79 1014.3
20260509221511 55 53 0.0 0.0 0.00 0.00 0.00 78 1014.2
20260509220016 55 53 0.0 0.0 0.00 0.00 0.00 77 1014.2
20260509214509 56 57 0.0 0.0 0.00 0.00 0.00 76 1014.2
20260509213008 57 54 0.0 0.0 0.00 0.00 0.00 76 1014.0
20260509211506 58 54 0.0 0.0 0.00 0.00 0.00 75 1014.2
20260509210007 59 53 0.0 0.0 0.00 0.00 0.00 73 1014.4
20260509204508 59 53 0.0 0.0 0.00 0.00 0.00 72 1014.4
20260509203006 60 57 0.0 0.0 0.00 0.00 0.00 72 1014.5
20260509201503 60 54 0.0 0.0 0.00 0.00 0.00 70 1014.4
20260509200004 61 53 0.0 0.0 0.00 0.00 0.00 69 1014.3
20260509194506 62 53 0.0 0.0 0.00 0.00 0.00 68 1014.3
20260509193002 62 58 0.0 0.0 0.00 0.00 0.00 67 1014.2
20260509191501 63 54 0.0 0.0 0.00 0.00 0.00 66 1014.1
20260509190000 64 53 0.0 0.0 0.00 0.00 0.00 64 1013.9
20260509184610 64 53 0.0 0.0 0.00 0.00 0.00 63 1013.9
20260509183100 65 53 0.0 0.0 0.00 0.00 0.00 62 1013.9
20260509181604 66 53 0.0 0.0 0.00 0.00 0.00 60 1013.8
20260509180105 67 54 0.0 0.0 0.00 0.00 0.00 58 1013.8
20260509174658 68 44 0.0 0.0 0.00 0.00 0.00 57 1013.9
20260509173101 68 44 0.0 0.0 0.00 0.00 0.00 55 1013.9
20260509171555 69 38 0.0 0.0 0.00 0.00 0.00 53 1013.8
20260509164553 70 42 0.0 0.0 0.00 0.00 0.00 52 1013.8
20260509163103 71 45 0.0 0.0 0.00 0.00 0.00 52 1013.8
20260509161555 72 60 0.0 0.0 0.00 0.00 0.00 51 1013.9
20260509160047 72 58 0.0 0.0 0.00 0.00 0.00 51 1014.2
20260509154548 72 36 0.0 0.0 0.00 0.00 0.00 51 1014.3
20260509153046 72 41 0.0 0.0 0.00 0.00 0.00 49 1014.3
20260509151542 72 30 0.0 0.0 0.00 0.00 0.00 51 1014.6
20260509150043 71 29 0.0 0.0 0.00 0.00 0.00 50 1014.7
20260509144539 72 30 0.0 0.0 0.00 0.00 0.00 50 1014.7
20260509143046 70 59 0.0 0.0 0.00 0.00 0.00 53 1014.9
20260509141536 69 64 0.0 0.0 0.00 0.00 0.00 55 1015.1
20260509140034 71 63 0.0 0.0 0.00 0.00 0.00 50 1015.2
20260509134533 72 52 0.0 0.0 0.00 0.00 0.00 50 1015.4
20260509133032 71 43 0.0 0.0 0.00 0.00 0.00 51 1015.6
20260509131529 72 86 0.0 0.0 0.00 0.00 0.00 50 1015.8
20260509130029 72 84 0.0 0.0 0.00 0.00 0.00 49 1016.1
20260509124535 70 82 0.0 0.0 0.00 0.00 0.00 50 1016.1
20260509123022 70 46 0.0 0.0 0.00 0.00 0.00 55 1016.4
20260509121530 69 42 0.0 0.0 0.00 0.00 0.00 54 1016.6
20260509120017 68 45 0.0 0.0 0.00 0.00 0.00 55 1016.7
20260509114533 67 65 0.0 0.0 0.00 0.00 0.00 56 1016.8
20260509113014 66 66 0.0 0.0 0.00 0.00 0.00 59 1017.0
20260509111510 67 78 0.0 0.0 0.00 0.00 0.00 57 1017.1
20260509110011 67 78 0.0 0.0 0.00 0.00 0.00 58 1017.4
20260509104507 66 88 0.0 0.0 0.00 0.00 0.00 56 1017.4
20260509103005 66 87 0.0 0.0 0.00 0.00 0.00 57 1017.6
20260509101501 65 67 0.0 0.0 0.00 0.00 0.00 65 1017.8
20260509100058 64 71 0.0 0.0 0.00 0.00 0.00 68 1017.9
20260509094554 62 74 0.0 0.0 0.00 0.00 0.00 71 1017.8
20260509093052 61 78 0.0 0.0 0.00 0.00 0.00 71 1017.9
20260509091555 60 83 0.0 0.0 0.00 0.00 0.00 74 1017.9
20260509090058 58 73 0.0 0.0 0.00 0.00 0.00 76 1018.1
20260509084544 57 74 0.0 0.0 0.00 0.00 0.00 78 1018.2
20260509083045 56 68 0.0 0.0 0.00 0.00 0.00 80 1018.3
20260509081530 55 66 0.0 0.0 0.00 0.00 0.00 81 1018.4
20260509080030 54 66 0.0 0.0 0.00 0.00 0.00 82 1018.4
20260509074532 53 69 0.0 0.0 0.00 0.00 0.00 84 1018.5
20260509073113 52 53 0.0 0.0 0.00 0.00 0.00 86 1018.5
20260509071556 51 53 0.0 0.0 0.00 0.00 0.00 86 1018.5
20260509070057 50 49 0.0 0.0 0.00 0.00 0.00 86 1018.6
20260509064548 49 51 0.0 0.0 0.00 0.00 0.00 85 1018.6
20260509063051 49 61 0.0 0.0 0.00 0.00 0.00 85 1018.6
20260509061545 48 61 0.0 0.0 0.00 0.00 0.00 83 1018.6
20260509060043 47 65 0.0 0.0 0.00 0.00 0.00 83 1018.5
20260509054542 47 44 0.0 0.0 0.00 0.00 0.00 82 1018.6
20260509053044 46 27 0.0 0.0 0.00 0.00 0.00 83 1018.4
20260509051537 46 27 0.0 0.0 0.00 0.00 0.00 83 1018.0
20260509050048 45 27 0.0 0.0 0.00 0.00 0.00 84 1017.9
20260509044534 44 27 0.0 0.0 0.00 0.00 0.00 85 1017.8
20260509043036 44 27 0.0 0.0 0.00 0.00 0.00 85 1017.7
20260509041527 44 26 0.0 0.0 0.00 0.00 0.00 85 1017.6
20260509040026 44 27 0.0 0.0 0.00 0.00 0.00 85 1017.7
20260509034525 44 24 0.0 0.0 0.00 0.00 0.00 86 1017.8
20260509033034 44 23 0.0 0.0 0.00 0.00 0.00 86 1017.6
20260509031527 44 23 0.0 0.0 0.00 0.00 0.00 86 1017.5
20260509030022 45 22 0.0 0.0 0.00 0.00 0.00 86 1017.5
20260509024519 45 22 0.0 0.0 0.00 0.00 0.00 86 1017.6
20260509023019 45 24 0.0 0.0 0.00 0.00 0.00 86 1017.6
20260509021518 45 24 0.0 0.0 0.00 0.00 0.00 86 1017.7
20260509020020 45 23 0.0 0.0 0.00 0.00 0.00 87 1017.6
20260509014517 45 23 0.0 0.0 0.00 0.00 0.00 87 1017.5